Current Weather Conditions by Major Hwy


I-84 West to East [Columbia River Gorge] 1100 PM PST MON FEB 27 2017 ELEVA CITY SKY/WX TMP DP RH WIND PRES REMARKS 10 ASTORIA, OR MOCLDY 38 35 89 SW5 29.83R 20 KELSO CLOUDY 37 36 96 CALM 29.84R 40 PORTLAND, OR LGT RAIN 40 36 86 SW13 29.84R 30 TROUTDALE, OR CLOUDY 41 37 86 SW17 29.83R 240 THE DALLES, OR PTCLDY 33 32 96 CALM 29.77R 620 HERMISTON, OR CLOUDY 39 31 72 SW13 29.73R 1,480 PENDLETON, OR CLOUDY 36 29 75 SW14 29.70S 2,710 LA GRANDE MOCLDY 30 25 80 E3 29.69S 3,370 BAKER CITY PTCLDY 25 23 92 W7 29.69R WCI 17 2,190 ONTARIO CLOUDY 33 27 78 S5 29.79S WCI 29
I-90 West to East 1100 PM PST MON FEB 27 2017 ELEVA CITY SKY/WX TMP DP RH WIND PRES REMARKS 30 SEATAC AIRPORT CLOUDY 36 32 85 SE3 29.77R 1,730 ELLENSBURG FOG 24 22 91 CALM 29.66S VSB 1/4 1,200 MOSES LAKE MOCLDY 30 26 85 SW8 29.65S 1,880 SPOKANE GEIGER FLURRIES 30 28 92 SW14 29.58F WCI 19
I-82 North West to South East 1100 PM PST MON FEB 27 2017 ELEVA CITY SKY/WX TMP DP RH WIND PRES REMARKS 1,730 ELLENSBURG FOG 24 22 91 CALM 29.66S VSB 1/4 1,050 YAKIMA CLEAR 29 24 82 W8 29.70R 720 360 PASCO CLOUDY 39 29 67 SW18 29.72R 620 HERMISTON, OR CLOUDY 39 31 72 SW13 29.73R
Hwy97 North to South 1100 PM PST MON FEB 27 2017 ELEVA CITY SKY/WX TMP DP RH WIND PRES REMARKS 850 OMAK CLOUDY 29 22 75 N15G23 29.66R WCI 18 630 WENATCHEE CLEAR 26 23 88 NW6 29.66R 1,730 ELLENSBURG FOG 24 22 91 CALM 29.66S VSB 1/4 1,050 YAKIMA CLEAR 29 24 82 W8 29.70R 1,640 GOLDENDALE* PTCLDY 33 32 96 CALM 29.77R *From Dallesport Airport Elev 240 3,080 REDMOND CLOUDY 32 21 64 SW8 29.75R WCI 25 4,100 KLAMATH FALLS CLOUDY 29 23 78 W10 29.85S WCI 20
I-5 North to South 1100 PM PST MON FEB 27 2017 ELEVA CITY SKY/WX TMP DP RH WIND PRES REMARKS 150 BELLINGHAM CLOUDY 24 23 96 CALM 29.77R FOG 100 ARLINGTON CLOUDY 30 25 80 CALM 29.81R 610 EVERETT CLOUDY 33 31 92 S6 29.77R 30 SEATAC AIRPORT CLOUDY 36 32 85 SE3 29.77R 200 OLYMPIA CLOUDY 35 35 100 SW9 29.78R 20 KELSO CLOUDY 37 36 96 CALM 29.84R 100 VANCOUVER CLOUDY 41 38 89 W3 29.84R 40 PORTLAND LGT RAIN 40 36 86 SW13 29.84R WCI 32 200 SALEM CLOUDY 39 35 86 SW8 29.88R WCI 33 360 EUGENE LGT RAIN 38 36 92 S13 29.92S WCI 30 510 ROSEBURG CLOUDY 40 35 83 CALM 29.97R 1,300 MEDFORD CLOUDY 37 32 82 W3 29.96R
Data from:
http://www.wrh.noaa.gov/sew/get.php?pil=RWR&sid=OR&version=0&format=printer
http://www.wrh.noaa.gov/sew/get.php?pil=RWR&sid=WA&version=0&format=printer

Current Observations

Washington State Current Weather Observations   …  Oregon State Current Weather Observation



48 Hour Forecast

Seattle  …  Vancouver  …  Portland
————————————————————————————————————————
Bend  …  Spokane  …  Richland  …  Pendleton  …  Blue Mountains I-84  …  Yakima
————————————————————————————————————————
Goldendale, Washington Higher Elevations  …  Dallesport Airport - Goldendale  …  Bingen - White Salmon - Hood River  …  Index


Top of Page